パンスターズ彗星

C/2021 O3 ( PanSTARRS )

English version
Home page
Updated on November 15, 2021

---------------------------------------------------------------------

・ プロフィール

発見日 2021年7月26日
発見光度 19.8等
発見者 Pan-STARRS 1 telescope (Haleakala)

・ 写真集

・ 軌道要素

Epoch 2022 Apr. 11.0 TT = JDT 2459680.5
T 2022 Apr. 21.05134 TT                                 Rudenko
q   0.2873059            (2000.0)            P               Q
z  -0.0003113      Peri.  299.99366     -0.56807712     -0.81245666
 +/-0.0000104      Node   189.01872     +0.64615208     -0.53902138
e   1.0000894      Incl.   56.79315     -0.50968213     +0.22219389
From 458 observations 2021 July 26-Oct. 26, mean residual 0".4.

・ 星図

・ 光度変化

        m1 = 10.0 + 5 logΔ + 10.0 log r

---------------------------------------------------------------------

軌道要素はM.P.E.C. 2021-U109に掲載されたものです。
星図はステラナビゲータ Ver.10 (アストロアーツ) で作成したものです。
光度グラフはComet for Windowsで作成したものです。

---------------------------------------------------------------------

Copyright(C) Seiichi Yoshida (comet@aerith.net). All rights reserved.